EW6644 Kerkyra GR current weather conditions

sailwx.info

Air temperature 25.6° C
Dewpoint 16.1° C

Last reported at 2020-Aug-09 22:00 UTC.
Time now 2020-Aug-09 22:27 UTC

Location: N 39°41' E 019°44'.
View on Google Maps.

See reports from other nearby stations

  
Tides and Currents Weather Stations Pressure Air Temp Water Temp Dewpoint Dewpoint Depression Visibility Wind Speed Wind Dir Waves Ship Positions
date/time (UTC)wind fromknots sea level pressurealtimeterstation pressurevisibilityair tempwater tempwave heightnotes
2020-Aug-09 22:00 25.6
2020-Aug-09 21:50 25.6
2020-Aug-09 21:40 25.6
2020-Aug-09 21:30 26.1
2020-Aug-09 21:20 26.1
2020-Aug-09 21:10 25.6
2020-Aug-09 21:00 26.1
2020-Aug-09 20:50 26.1
2020-Aug-09 20:40 26.1
2020-Aug-09 20:30 26.7
2020-Aug-09 20:20 27.2
2020-Aug-09 20:10 27.2
2020-Aug-09 20:00 27.8
2020-Aug-09 19:50 355 2 gusting 6 27.2
2020-Aug-09 19:40 308 2 gusting 7 26.7
2020-Aug-09 19:30 305 3 gusting 9 26.1
2020-Aug-09 19:20 001 6 gusting 11 25.6
2020-Aug-09 19:10 335 6 gusting 9 25.6
2020-Aug-09 19:00 326 7 gusting 11 26.1
2020-Aug-09 18:50 327 3 gusting 9 26.1
2020-Aug-09 18:40 318 4 gusting 9 26.1
2020-Aug-09 18:30 348 4 gusting 12 26.1
2020-Aug-09 18:20 009 1 gusting 6 26.1
2020-Aug-09 18:10 003 3 gusting 8 26.1
2020-Aug-09 18:00 360 4 gusting 9 26.7
2020-Aug-09 17:50 349 3 gusting 8 26.7
2020-Aug-09 17:40 004 2 gusting 7 27.2
2020-Aug-09 17:30 342 1 gusting 6 27.2
2020-Aug-09 17:20 360 27.8
2020-Aug-09 17:10 048 27.8
2020-Aug-09 17:00 315 27.8
2020-Aug-09 16:50 353 0 gusting 9 28.3
2020-Aug-09 16:40 353 2 gusting 6 28.3
2020-Aug-09 16:30 021 4 gusting 13 28.3
2020-Aug-09 16:20 342 3 gusting 9 29.4
2020-Aug-09 16:10 360 0 gusting 9 29.4
2020-Aug-09 16:00 007 1 gusting 7 29.4
2020-Aug-09 15:50 360 29.4
2020-Aug-09 15:40 341 0 gusting 2 30.0
2020-Aug-09 15:30 360 0 gusting 8 30.6
2020-Aug-09 15:20 360 3 gusting 11 30.6
2020-Aug-09 15:10 005 4 gusting 9 31.1
2020-Aug-09 15:00 355 1 gusting 9 31.1
2020-Aug-09 14:50 315 0 gusting 6 31.1
2020-Aug-09 14:40 045 31.1
2020-Aug-09 14:30 360 6 gusting 13 31.1
2020-Aug-09 14:20 345 6 gusting 10 31.7
2020-Aug-09 14:10 337 1 gusting 10 31.7
2020-Aug-09 14:00 016 2 gusting 8 31.7
2020-Aug-09 13:50 345 2 gusting 7 31.7
2020-Aug-09 13:40 333 1 gusting 10 31.7
2020-Aug-09 13:30 315 1 gusting 8 31.7
2020-Aug-09 13:20 322 2 gusting 7 31.7
2020-Aug-09 13:10 309 0 gusting 8 32.2
2020-Aug-09 13:00 324 2 gusting 6 32.2
2020-Aug-09 12:50 348 2 gusting 6 31.7
2020-Aug-09 12:40 326 32.2
2020-Aug-09 12:30 326 3 gusting 7 32.2
2020-Aug-09 12:20 307 1 gusting 6 32.8
2020-Aug-09 12:10 292 0 gusting 5 32.8
2020-Aug-09 12:00 337 33.3
2020-Aug-09 11:50 33.3
2020-Aug-09 11:40 33.3
2020-Aug-09 11:30 119 0 gusting 4 32.8
2020-Aug-09 11:20 180 32.8
2020-Aug-09 11:10 090 32.2
2020-Aug-09 11:00 32.2
2020-Aug-09 10:50 090 0 gusting 7 32.8
2020-Aug-09 10:40 143 0 gusting 6 33.3
2020-Aug-09 10:30 33.3
2020-Aug-09 10:20 33.3
2020-Aug-09 10:10 32.8
2020-Aug-09 10:00 33.3
2020-Aug-09 09:50 33.3
2020-Aug-09 09:40 32.8
2020-Aug-09 09:30 32.8
2020-Aug-09 09:20 32.2
2020-Aug-09 09:10 32.2
2020-Aug-09 09:00 31.7
2020-Aug-09 08:50 31.1
2020-Aug-09 08:40 31.1
2020-Aug-09 08:30 30.6
2020-Aug-09 08:20 30.6
2020-Aug-09 08:10 30.0
2020-Aug-09 08:00 360 30.0
2020-Aug-09 07:50 315 30.0
2020-Aug-09 07:40 090 30.6
2020-Aug-09 07:30 014 1 gusting 6 29.4
2020-Aug-09 07:20 022 28.3
2020-Aug-09 07:10 019 27.8
2020-Aug-09 07:00 356 2 gusting 6 27.8
2020-Aug-09 06:50 319 2 gusting 9 27.2
2020-Aug-09 06:40 343 0 gusting 6 26.7
2020-Aug-09 06:30 007 1 gusting 9 26.7
2020-Aug-09 06:20 003 1 gusting 8 26.7
2020-Aug-09 06:10 26.7
2020-Aug-09 06:00 26.1
2020-Aug-09 05:50 25.6
2020-Aug-09 05:40 25.0
2020-Aug-09 05:30 25.6
2020-Aug-09 05:20 25.6
2020-Aug-09 05:10 25.6
2020-Aug-09 05:00 25.6
2020-Aug-09 04:50 25.6
2020-Aug-09 04:40 315 25.6
2020-Aug-09 04:30 289 0 gusting 6 25.0
2020-Aug-09 04:20 24.4
2020-Aug-09 04:10 24.4
2020-Aug-09 04:00 25.0
2020-Aug-09 03:50 25.0
2020-Aug-09 03:40 25.0
2020-Aug-09 03:30 24.4
2020-Aug-09 03:20 24.4
2020-Aug-09 03:10 23.9
2020-Aug-09 03:00 24.4
2020-Aug-09 02:50 24.4
2020-Aug-09 02:40 24.4
2020-Aug-09 02:30 24.4
2020-Aug-09 02:20 24.4
2020-Aug-09 02:10 24.4
2020-Aug-09 02:00 24.4
2020-Aug-09 01:50 25.0
2020-Aug-09 01:40 25.6
2020-Aug-09 01:30 25.6
2020-Aug-09 01:20 25.6
2020-Aug-09 01:10 25.6
2020-Aug-09 01:00 26.1
2020-Aug-09 00:50 26.7
2020-Aug-09 00:40 338 0 gusting 4 26.7
2020-Aug-09 00:30 329 6 gusting 13 26.7
2020-Aug-09 00:20 006 3 gusting 9 26.1
2020-Aug-09 00:10 017 1 gusting 9 25.6
2020-Aug-09 00:00 298 1 gusting 8 24.4
2020-Aug-08 23:50 311 0 gusting 3 23.3
2020-Aug-08 23:40 23.9
2020-Aug-08 23:30 23.3
2020-Aug-08 23:20 23.9
2020-Aug-08 23:10 23.9
2020-Aug-08 23:00 23.9
2020-Aug-08 22:50 315 22.8
2020-Aug-08 22:40 22.2
2020-Aug-08 22:30 22.2
2020-Aug-08 22:20 22.2
2020-Aug-08 22:10 337 1 gusting 3 22.2
2020-Aug-08 22:00 196 0 gusting 5 21.7
2020-Aug-08 21:50 142 21.7
2020-Aug-08 21:40 21.7
2020-Aug-08 21:30 21.7
2020-Aug-08 21:20 21.7
2020-Aug-08 21:10 21.7
2020-Aug-08 21:00 21.7
2020-Aug-08 20:50 21.7
2020-Aug-08 20:40 21.7
2020-Aug-08 20:30 21.7
2020-Aug-08 20:20 21.7
2020-Aug-08 20:10 22.2
2020-Aug-08 20:00 22.2
2020-Aug-08 19:50 22.2
2020-Aug-08 19:40 322 2 gusting 3 22.2
2020-Aug-08 19:30 331 2 gusting 6 22.2
2020-Aug-08 19:20 356 1 gusting 6 22.8
2020-Aug-08 19:10 319 4 gusting 6 22.8
2020-Aug-08 19:00 335 4 gusting 6 22.8
2020-Aug-08 18:50 342 3 gusting 6 22.8
2020-Aug-08 18:40 326 5 gusting 6 22.8
2020-Aug-08 18:30 327 1 gusting 4 22.8
2020-Aug-08 18:20 277 0 gusting 5 22.2
2020-Aug-08 18:10 304 1 gusting 6 22.2
2020-Aug-08 18:00 315 0 gusting 6 21.7
2020-Aug-08 17:50 21.7
2020-Aug-08 17:40 21.7
2020-Aug-08 17:30 21.7
2020-Aug-08 17:20 21.7
2020-Aug-08 17:10 21.7
2020-Aug-08 17:00 315 21.7
2020-Aug-08 16:50 21.7
2020-Aug-08 16:40 21.7
2020-Aug-08 16:30 21.1
2020-Aug-08 16:20 21.7
2020-Aug-08 16:10 21.7
2020-Aug-08 16:00 21.7
2020-Aug-08 15:50 22.2
2020-Aug-08 15:40 23.3
2020-Aug-08 15:30 112 24.4
2020-Aug-08 15:20 339 6 gusting 13 25.0
2020-Aug-08 15:10 002 7 gusting 13 25.6
2020-Aug-08 15:00 317 6 gusting 14 25.6
2020-Aug-08 14:50 328 9 gusting 17 25.6
2020-Aug-08 14:40 011 13 gusting 16 26.1
2020-Aug-08 14:30 002 6 gusting 16 26.7
2020-Aug-08 14:20 353 8 gusting 14 26.7
2020-Aug-08 14:10 343 5 gusting 14 26.7
2020-Aug-08 14:00 352 9 gusting 13 26.7
2020-Aug-08 13:50 353 8 gusting 13 26.7
2020-Aug-08 13:40 353 7 gusting 13 26.7
2020-Aug-08 13:30 357 8 gusting 13 26.7
2020-Aug-08 13:20 345 8 gusting 13 26.7
2020-Aug-08 13:10 348 6 gusting 11 26.7
2020-Aug-08 13:00 327 6 gusting 12 26.7
2020-Aug-08 12:50 346 6 gusting 11 26.7
2020-Aug-08 12:40 330 6 gusting 11 26.7
2020-Aug-08 12:30 011 6 gusting 12 27.2
2020-Aug-08 12:20 018 9 gusting 12 27.2
2020-Aug-08 12:10 022 4 gusting 12 27.8
2020-Aug-08 12:00 27.8
2020-Aug-08 11:50 135 0 gusting 6 27.8
2020-Aug-08 11:40 180 0 gusting 7 27.8
2020-Aug-08 11:30 181 0 gusting 5 27.2
2020-Aug-08 11:20 183 3 gusting 8 27.8
2020-Aug-08 11:10 010 0 gusting 6 27.8
2020-Aug-08 11:00 158 6 gusting 9 27.2
2020-Aug-08 10:50 159 4 gusting 7 27.2
2020-Aug-08 10:40 167 6 gusting 9 27.2
2020-Aug-08 10:30 159 2 gusting 8 27.2
2020-Aug-08 10:20 151 1 gusting 7 27.2
2020-Aug-08 10:10 135 0 gusting 7 26.7
2020-Aug-08 10:00 26.7
2020-Aug-08 09:50 26.7
2020-Aug-08 09:40 26.7
2020-Aug-08 09:30 26.7
2020-Aug-08 09:20 26.7
2020-Aug-08 09:10 26.7
2020-Aug-08 09:00 26.7
2020-Aug-08 08:50 26.7
2020-Aug-08 08:40 170 1 gusting 6 26.7
2020-Aug-08 08:30 164 6 gusting 7 26.1
2020-Aug-08 08:20 152 4 gusting 8 26.7
2020-Aug-08 08:10 150 0 gusting 2 26.7
2020-Aug-08 08:00 135 0 gusting 6 26.7
2020-Aug-08 07:50 151 0 gusting 6 26.7
2020-Aug-08 07:40 164 26.7
2020-Aug-08 07:30 26.7
2020-Aug-08 07:20 26.1
2020-Aug-08 07:10 180 26.1
2020-Aug-08 07:00 25.6
2020-Aug-08 06:50 25.6
2020-Aug-08 06:40 360 25.0
2020-Aug-08 06:30 25.0
2020-Aug-08 06:20 24.4
2020-Aug-08 06:10 24.4
2020-Aug-08 06:00 24.4
2020-Aug-08 05:50 24.4
2020-Aug-08 05:40 24.4
2020-Aug-08 05:30 23.3
2020-Aug-08 05:20 22.8
2020-Aug-08 05:10 22.2
2020-Aug-08 05:00 21.7
2020-Aug-08 04:50 21.1
2020-Aug-08 04:40 21.1
2020-Aug-08 04:30 20.6
2020-Aug-08 04:20 20.0
2020-Aug-08 04:10 20.0
2020-Aug-08 04:00 20.0
2020-Aug-08 03:50 20.0
2020-Aug-08 03:40 292 20.0
2020-Aug-08 03:30 20.0
2020-Aug-08 03:20 20.0
2020-Aug-08 03:10 20.0
2020-Aug-08 03:00 20.0
2020-Aug-08 02:50 20.0
2020-Aug-08 02:40 20.0
2020-Aug-08 02:30 19.4
2020-Aug-08 02:20 19.4
2020-Aug-08 02:10 20.0
2020-Aug-08 02:00 20.0
2020-Aug-08 01:50 20.0
2020-Aug-08 01:40 20.6
2020-Aug-08 01:30 20.6
2020-Aug-08 01:20 20.6
2020-Aug-08 01:10 20.6
2020-Aug-08 01:00 20.0
2020-Aug-08 00:50 20.0
2020-Aug-08 00:40 20.0
2020-Aug-08 00:30 20.0
2020-Aug-08 00:20 20.0
2020-Aug-08 00:10 20.6
2020-Aug-08 00:00 20.6
2020-Aug-07 23:50 20.6
2020-Aug-07 23:40 20.6
2020-Aug-07 23:30 20.6
2020-Aug-07 23:20 20.6
2020-Aug-07 23:10 20.6
2020-Aug-07 23:00 20.6
2020-Aug-07 22:50 20.6
2020-Aug-07 22:40 20.6
2020-Aug-07 22:30 20.6
2020-Aug-07 22:20 20.6
2020-Aug-07 22:10 20.6
2020-Aug-07 22:00 20.6